Location: Newark
(60.7728°N, 46.2261°E)
Time: 13:20:17
(UTC+00:00)

ISS - Pass Details

Date: 29 September 2019
Orbit: 411 x 421 km, 51.6° (Epoch: 15 October)

Event Time Altitude Azimuth Distance (km) Brightness Sun altitude
Rises 15:26:39 0° 238° (WSW) 2,344 0.9 -7.2°
Reaches altitude 10° 15:29:13 10° 218° (SW) 1,482 -0.6 -7.5°
Maximum altitude 15:31:28 17° 175° (S) 1,125 -1.7 -7.7°
Drops below altitude 10° 15:33:43 10° 132° (SE) 1,483 -1.5 -8.0°
Enters shadow 15:34:07 - 128° (SE) 1,596 -1.4 -8.1°
